Regional Weather Roundup
Issued by NWS Goodland, KS

Home | Current Version | Previous Version | Text Only | Print | Product List | Glossary Off
Versions: 1 2 3 4 5 6 7 8 9 10 11 12 13 14 15 16 17 18 19 20 21 22 23 24 25 26 27 28 29 30 31 32 33 34 35 36 37 38 39 40 41 42 43 44 45 46 47 48 49 50

000
ASUS43 KGLD 110759
RWRGLD

GOODLAND FORECAST AREA HOURLY WEATHER ROUNDUP
NATIONAL WEATHER SERVICE GOODLAND KS
100 AM MST THU FEB 11 2016

...OFFICIAL OBSERVATIONS...

CITY           SKY/WX    TMP DP  RH WIND       PRES   REMARKS
GOODLAND KS    CLEAR     33  25  72 NW8       30.15S
HILL CITY KS   CLEAR     30  27  88 N7        30.16R
IMPERIAL NEB   CLOUDY    32  26  78 NW5       30.15S
MCCOOK NEB     CLOUDY    34  28  79 CALM      30.16R
AKRON CO       CLOUDY    39  21  48 NW10      30.16F
BURLINGTON CO  CLOUDY    33  23  66 NW10      30.16S
LIMON CO       CLOUDY    28  18  66 VRB6      30.21S
$$

...UNOFFICIAL OBSERVATIONS...

CITY           SKY/WX    TMP DP  RH WIND       PRES   REMARKS
COLBY KS       CLEAR     36  30  80 N7        30.16S
GOVE KS          N/A     38  32  79 MISG        N/A
LENORA KS        N/A     34  32  92 MISG        N/A
NORTON KS      CLEAR     28  25  86 N7        30.15R
SHARON SPRINGS   N/A     38  27  65 N12         N/A
TRENTON NEB      N/A     35  32  89 MISG        N/A
KIT CARSON CO    N/A     37  24  60 MISG        N/A
YUMA CO          N/A     34  26  71 NW6         N/A
$$



USA.gov is the U.S. government's official web portal to all federal, state and local government web resources and services.